Location: Brabourne
(51.1333°N, 1.0000°E)
Time: 21:27:16
(UTC+00:00)

NOSS 3-1 (A) - Pass Details

Date: 31 October 2021
Orbit: 721 x 1491 km, 63.4° (Epoch: 22 November)

Event Time Altitude Azimuth Distance (km) Brightness Sun altitude
Rises 18:06:31 0° 236° (SW) 3,259 7.3 -15.3°
Reaches altitude 10° 18:08:47 10° 239° (WSW) 2,399 6.6 -15.7°
Maximum altitude 18:14:16 64° 322° (NW) 1,006 3.7 -16.5°
Enters shadow 18:20:11 13° 42° (NE) 2,628 5.4 -17.5°
